Powrót do katalogu

SL-16 DEB

AktywnyLEO
NORAD 22417·DEBRIS·🇷🇺 Russia

Wystrzelony Dec 25, 1992 z Baikonur Cosmodrome

Loading…

Następne Przeloty (najbliższe 24 godziny)

TLE

ŚwieżeSource: Space-Track

Epoka: Sep 14, 2026, 14:57 UTC

1 22417U 92093DJ  26257.62303047  .00000035  00000-0  54678-4 0  9998
2 22417  71.1825 214.1075 0088182 311.7749 221.6920 13.97691256718132

Śledź SL-16 DEB w czasie rzeczywistym z AllMySat

Download on the App Store